Weather History for Saranac Lake, NY

Change the Weather History Date:

Saturday, November 3, 2012

  Actual Average Record
Temperature  
Mean Temperature 33 °F 37 °F  
Max Temperature 34 °F 48 °F 69 °F (1950)
Min Temperature 31 °F 27 °F 3 °F (2002)
Degree Days  
Heating Degree Days 32 28  
Month to date heating degree days 88 83  
Since 1 July heating degree days 1181 1375  
Moisture  
Dew Point 30 °F    
Average Humidity 89    
Maximum Humidity 92    
Minimum Humidity 85    
Precipitation  
Precipitation T in 0.12 in 1.60 in (1967)
Month to date precipitation 0.08 0.38  
Year to date precipitation 30.34 32.26  
Sea Level Pressure  
Sea Level Pressure 29.80 in    
Wind  
Wind Speed 7 mph (West)    
Max Wind Speed 10 mph    
Max Gust Speed 18 mph    
Visibility 4 miles    
Events Snow    
T = Trace of Precipitation, MM = Missing Value Source: NWS Daily Summary

Daily Weather History Graph

Daily Weather History Graph

Search for Another Location

Airport:

Trip Planner

Search our weather history database for the weather conditions in past years. The results will help you decide how hot, cold, wet, or windy it might be!

Date:

Astronomy

Nov. 03, 2012 Rise Set
Actual Time 7:37 AM EDT 5:42 PM EDT
Civil Twilight 7:06 AM EDT 6:13 PM EDT
Nautical Twilight 6:32 AM EDT 6:47 PM EDT
Astronomical Twilight 5:58 AM EDT 7:21 PM EDT
Moon 9:17 PM EDT (11/3) 11:43 AM EDT (11/3)
Length of Visible Light 11h 06m
Length of Day
10h 05m
Waning Gibbous, 80% of the Moon is Illuminated
Nov 3
Waning Gibbous
Nov 6
Last Quarter
Nov 13
New
Nov 20
First Quarter
Nov 28
Full

Hourly Weather History & Observations

Time (EDT) Temp. Windchill Dew Point Humidity Pressure Visibility Wind Dir Wind Speed Gust Speed Precip Events Conditions
1:05 AM 33.8 °F 29.6 °F 32.0 °F 93% 29.67 in 5.0 mi WSW 4.6 mph - 0.00 in Snow Light Snow
1:48 AM 33.8 °F 28.6 °F 30.2 °F 87% 29.67 in 9.0 mi Variable 5.8 mph - 0.00 in Snow Light Snow
1:51 AM 33.1 °F 28.7 °F 30.9 °F 92% 29.71 in 8.0 mi WSW 4.6 mph - 0.00 in Snow Light Snow
2:51 AM 33.1 °F 26.9 °F 30.0 °F 89% 29.73 in 6.0 mi West 6.9 mph - 0.00 in Snow Light Snow
3:51 AM 32.0 °F 25.6 °F 30.0 °F 92% 29.73 in 9.0 mi Variable 6.9 mph - 0.00 in   Overcast
4:51 AM 32.0 °F 26.4 °F 30.0 °F 92% 29.74 in 10.0 mi Variable 5.8 mph - N/A   Overcast
5:51 AM 32.0 °F 26.4 °F 28.9 °F 88% 29.75 in 10.0 mi Variable 5.8 mph - N/A   Overcast
6:51 AM 32.0 °F 25.6 °F 28.9 °F 88% 29.77 in 5.0 mi West 6.9 mph - 0.00 in   Overcast
7:25 AM 30.2 °F 25.4 °F 30.2 °F 100% 29.73 in 2.5 mi West 4.6 mph - 0.00 in Snow Light Snow
7:51 AM 30.9 °F 25.2 °F 30.0 °F 96% 29.79 in 1.8 mi West 5.8 mph - 0.00 in Snow Light Snow
7:58 AM 32.0 °F 27.5 °F 30.2 °F 93% 29.74 in 2.0 mi Variable 4.6 mph - 0.00 in Snow Light Snow
8:09 AM 30.2 °F 26.7 °F 30.2 °F 100% 29.75 in 1.8 mi WSW 3.5 mph - 0.00 in Snow Light Snow
8:18 AM 32.0 °F 27.5 °F 30.2 °F 93% 29.75 in 2.5 mi Variable 4.6 mph - 0.00 in Snow Light Snow
8:46 AM 32.0 °F 26.4 °F 30.2 °F 93% 29.76 in 3.0 mi WSW 5.8 mph - 0.00 in Snow Light Snow
8:51 AM 32.0 °F 25.6 °F 30.0 °F 92% 29.81 in 3.0 mi WSW 6.9 mph - 0.00 in Snow Light Snow
8:58 AM 32.0 °F 28.7 °F 30.2 °F 93% 29.76 in 2.5 mi Variable 3.5 mph - 0.00 in Snow Light Snow
9:06 AM 32.0 °F 27.5 °F 30.2 °F 93% 29.76 in 3.0 mi Variable 4.6 mph - 0.00 in Snow Light Snow
9:15 AM 32.0 °F 24.8 °F 30.2 °F 93% 29.76 in 4.0 mi West 8.1 mph - 0.00 in Snow Light Snow
9:51 AM 32.0 °F 25.6 °F 30.0 °F 92% 29.82 in 2.0 mi Variable 6.9 mph - 0.00 in Snow Light Snow
10:23 AM 33.8 °F 28.6 °F 30.2 °F 87% 29.77 in 3.0 mi Variable 5.8 mph - 0.00 in Snow Light Snow
10:51 AM 33.1 °F 26.9 °F 30.0 °F 89% 29.83 in 5.0 mi West 6.9 mph - 0.00 in Snow Light Snow
11:01 AM 33.8 °F 27.0 °F 30.2 °F 87% 29.78 in 5.0 mi West 8.1 mph - 0.00 in   Overcast
11:25 AM 33.8 °F 27.7 °F 30.2 °F 87% 29.78 in 2.0 mi West 6.9 mph - 0.00 in Snow Light Snow
11:36 AM 33.8 °F 29.6 °F 30.2 °F 87% 29.78 in 3.0 mi Variable 4.6 mph - 0.00 in Snow Light Snow
11:43 AM 33.8 °F 28.6 °F 30.2 °F 87% 29.79 in 2.0 mi Variable 5.8 mph - 0.00 in Snow Light Snow
11:51 AM 34.0 °F 27.2 °F 30.9 °F 89% 29.83 in 3.0 mi West 8.1 mph - 0.00 in Snow Light Snow
11:59 AM 33.8 °F 27.7 °F 30.2 °F 87% 29.78 in 1.8 mi Variable 6.9 mph - 0.00 in Snow Light Snow
12:19 PM 33.8 °F 26.4 °F 30.2 °F 87% 29.78 in 4.0 mi WNW 9.2 mph - 0.00 in Snow Light Snow
12:27 PM 33.8 °F 27.7 °F 30.2 °F 87% 29.78 in 1.5 mi WNW 6.9 mph - 0.00 in Snow Light Snow
12:40 PM 33.8 °F 27.7 °F 30.2 °F 87% 29.78 in 2.0 mi WNW 6.9 mph - 0.00 in Snow Light Snow
12:51 PM 34.0 °F 28.8 °F 30.0 °F 85% 29.83 in 7.0 mi Variable 5.8 mph - 0.00 in Snow Light Snow
1:13 PM 33.8 °F 28.6 °F 30.2 °F 87% 29.78 in 2.5 mi West 5.8 mph - 0.00 in Snow Light Snow
1:29 PM 33.8 °F 27.0 °F 30.2 °F 87% 29.78 in 3.0 mi West 8.1 mph - 0.00 in Snow Light Snow
1:54 PM 33.8 °F 28.6 °F 30.2 °F 87% 29.78 in 1.8 mi WNW 5.8 mph - 0.00 in Snow Light Snow
2:03 PM 33.8 °F 27.7 °F 30.2 °F 87% 29.78 in 3.0 mi Variable 6.9 mph - 0.00 in Snow Light Snow
2:09 PM 33.8 °F 27.7 °F 30.2 °F 87% 29.79 in 1.8 mi Variable 6.9 mph - 0.00 in Snow Light Snow
2:25 PM 33.8 °F 29.6 °F 30.2 °F 87% 29.79 in 1.8 mi Variable 4.6 mph - 0.00 in Snow Light Snow
2:32 PM 33.8 °F 29.6 °F 30.2 °F 87% 29.79 in 3.0 mi West 4.6 mph - 0.00 in Snow Light Snow
2:51 PM 34.0 °F 27.2 °F 30.0 °F 85% 29.84 in 4.0 mi West 8.1 mph 16.1 mph 0.00 in Snow Light Snow
3:36 PM 33.8 °F 29.6 °F 30.2 °F 87% 29.80 in 3.0 mi Variable 4.6 mph - 0.00 in Snow Light Snow
3:51 PM 33.1 °F 25.5 °F 30.0 °F 89% 29.86 in 3.0 mi West 9.2 mph - 0.00 in Snow Light Snow
4:14 PM 33.8 °F 30.8 °F 30.2 °F 87% 29.81 in 3.0 mi Variable 3.5 mph - 0.00 in Snow Light Snow
4:23 PM 33.8 °F 30.8 °F 30.2 °F 87% 29.81 in 2.0 mi Variable 3.5 mph - 0.00 in Snow Light Snow
4:46 PM 33.8 °F 25.8 °F 30.2 °F 87% 29.82 in 6.0 mi WNW 10.4 mph 16.1 mph 0.00 in Snow Light Snow
4:51 PM 33.1 °F 26.1 °F 30.0 °F 89% 29.87 in 4.0 mi West 8.1 mph 16.1 mph 0.00 in Snow Light Snow
5:51 PM 33.1 °F 27.7 °F 30.0 °F 89% 29.89 in 4.0 mi West 5.8 mph - 0.00 in Snow Light Snow
6:32 PM 33.8 °F 29.6 °F 30.2 °F 87% 29.84 in 4.0 mi Variable 4.6 mph - 0.00 in Snow Light Snow
6:51 PM 32.0 °F 24.8 °F 30.0 °F 92% 29.90 in 4.0 mi West 8.1 mph - 0.00 in Snow Light Snow
7:51 PM 33.1 °F 26.9 °F 30.0 °F 89% 29.91 in 8.0 mi West 6.9 mph - 0.00 in   Overcast
8:51 PM 32.0 °F 25.6 °F 30.0 °F 92% 29.92 in 3.0 mi Variable 6.9 mph - N/A   Overcast
9:44 PM 32.0 °F 26.4 °F 30.2 °F 93% 29.87 in 2.5 mi West 5.8 mph - 0.00 in Snow Light Snow
9:51 PM 32.0 °F 26.4 °F 30.0 °F 92% 29.93 in 4.0 mi Variable 5.8 mph - 0.00 in   Overcast
10:51 PM 32.0 °F 25.6 °F 28.9 °F 88% 29.94 in 10.0 mi Variable 6.9 mph - N/A   Overcast
11:17 PM 32.0 °F 27.5 °F 30.2 °F 93% 29.89 in 5.0 mi Variable 4.6 mph - N/A   Overcast
11:39 PM 32.0 °F 26.4 °F 28.4 °F 87% 29.88 in 5.0 mi Variable 5.8 mph - N/A   Overcast
11:51 PM 32.0 °F 25.6 °F 28.9 °F 88% 29.94 in 10.0 mi Variable 6.9 mph - N/A   Overcast